Miscellaneous Local Product
Issued by NWS Hastings, NE

Home | Current Version | Previous Version | Graphics & Text | Print | Product List | Glossary On
Versions: 1 2 3 4 5 6 7 8 9 10 11 12 13 14 15 16 17 18 19 20 21 22 23 24 25 26 27 28 29 30 31 32 33 34 35 36 37 38 39 40 41 42 43 44 45 46 47 48 49 50
000
AXUS43 KGID 251702
MISGRI

GID CWA HOURLY WEATHER ROUNDUP
NATIONAL WEATHER SERVICE HASTINGS NE
1200 PM CDT TUE APR 25 2017

NOTE: "FAIR" INDICATES FEW OR NO CLOUDS BELOW 12,000 FEET WITH NO
SIGNIFICANT WEATHER AND/OR OBSTRUCTIONS TO VISIBILITY.

...SOUTH CENTRAL NEBRASKA...

CITY           SKY/WX    TMP DP  RH WIND       PRES   REMARKS
GRAND ISLAND   CLOUDY    41  40  96 N16       29.58S
HASTINGS       CLOUDY    45  39  79 N20G31    29.55S
KEARNEY        CLOUDY    43  37  81 N15       29.58R
ORD            CLOUDY    40  36  86 N14       29.57S WCI  32
YORK           CLOUDY    45  41  87 N20       29.54R
AURORA         CLOUDY    42  39  90 N20       29.56R
LEXINGTON      CLOUDY    44  40  86 N13       29.57S
HOLDREGE       CLOUDY    43  40  88 N17       29.55S
HEBRON         CLOUDY    49  40  71 N20G25    29.51R

...NEBRASKA PANHANDLE...

CITY           SKY/WX    TMP DP  RH WIND       PRES   REMARKS
CHADRON        CLOUDY    35  31  85 NE21G26   29.68R WCI  24
ALLIANCE       CLOUDY    41  38  89 NE16      29.61R
SCOTTSBLUFF    CLOUDY    50  42  74 NE23G29   29.57R
SIDNEY         MOSUNNY   54  38  54 NW15G22   29.58R

...WESTERN AND NORTH CENTRAL NEBRASKA...

CITY           SKY/WX    TMP DP  RH WIND       PRES   REMARKS
VALENTINE      CLOUDY    37  32  82 NE15      29.65S WCI  28
AINSWORTH      CLOUDY    36  35  99 NE18      29.62S WCI  25
ONEILL         DRIZZLE   37  35  93 N16G22    29.62F WCI  27
BROKEN BOW     CLOUDY    40  32  73 N10       29.59R WCI  33
IMPERIAL       CLOUDY    47  43  86 N13       29.59R
NORTH PLATTE   CLOUDY    43  39  86 NE13      29.61R
MCCOOK         CLOUDY    48  44  86 NE9       29.57R

...EASTERN NEBRASKA...

CITY           SKY/WX    TMP DP  RH WIND       PRES   REMARKS
NORFOLK        CLOUDY    39  36  89 N16G25    29.57R WCI  30
SO SIOUX CITY  CLOUDY    45  43  93 NW10      29.58R
TEKAMAH        CLOUDY    49  41  74 N18       29.55R
COLUMBUS       CLOUDY    43  37  81 N22G28    29.56
ALBION         RAIN      39  36  87 N10G18    29.58S WCI  33
OMAHA EPPLEY   CLOUDY    55  45  68 N17       29.50R
OFFUTT AFB     CLOUDY    56  46  67 NW14      29.49R
MILLARD        CLOUDY    53  45  74 N8G16     29.50R
LINCOLN        CLOUDY    50  42  74 N17       29.53R
NEBRASKA CITY  CLOUDY    61  43  51 N15       29.45S
BEATRICE       CLOUDY    57  46  65 N15       29.48R
FALLS CITY     CLOUDY    67  51  56 CALM      29.41F

...NORTHERN KANSAS...

CITY           SKY/WX    TMP DP  RH WIND       PRES   REMARKS
GOODLAND       CLOUDY    53  43  68 NE9       29.56S
HILL CITY      CLOUDY    55  44  66 N17       29.54R
NORTON         CLOUDY    50  39  66 N14       29.53R
PHILLIPSBURG   CLOUDY    52  43  71 N18G28    29.52R
SMITH CENTER   CLOUDY    50  41  71 N20G28    29.50S
HAYS           CLOUDY    54  45  71 N18       29.50R
RUSSELL        CLOUDY    54  44  69 N20       29.48R
CONCORDIA      CLOUDY    55  47  74 N15       29.47R
SALINA         CLOUDY    66  53  63 NW12      29.43R
TOPEKA         PTSUNNY   70  54  56 S7G18     29.40S



USA.gov is the U.S. government's official web portal to all federal, state and local government web resources and services.